Regional Weather Roundup
Issued by NWS Sterling, VA

Home | Current Version | Previous Version | Graphics & Text | Print | Product List | Glossary On
Versions: 1 2 3 4 5 6 7 8 9 10 11 12 13 14 15 16 17 18 19 20 21 22 23 24 25 26 27
000
ASUS41 KLWX 230611
RWRLWX

REGIONAL WEATHER ROUNDUP
NATIONAL WEATHER SERVICE BALTIMORE MD/WASHINGTON DC
100 AM EST TUE JAN 23 2018

Note: "FAIR" indicates few or no clouds below 12,000 feet
with no significant weather and/or obstructions to visibility.
 TC=TEMPERATURE CELSIUS

 * =Non NWS site. Station does not report precipitation (e.g. rain,
    snow, etc.), thunder, or fog.

DCZ001-MDZ009-015-VAZ040>042-051-053>054-230700-
WASHINGTON METRO

CITY           SKY/WX    TMP DP  RH WIND       PRES   REMARKS
WASHINGTON NAT CLOUDY    52  44  74 S8        29.90F
DULLES         CLOUDY    55  44  66 S8        29.87F
ANDREWS AFB    MOCLDY    55  45  67 S13       29.89F
FT BELVOIR     CLOUDY    54  45  71 SE6       29.88F
COLLEGE PARK*  MOCLDY    48  42  79 CALM      29.90F
LEESBURG*      CLOUDY    55  45  67 S10       29.87F
MANASSAS*      CLOUDY    54  44  69 S6        29.87F
GAITHERSBURG*  CLOUDY    55  43  63 S9        29.89F

$$

MDZ006>007-011-014-230700-
BALTIMORE METRO

CITY           SKY/WX    TMP DP  RH WIND       PRES   REMARKS
BWI AIRPORT    CLOUDY    48  42  80 VRB3      29.91F
MD SCIENCE CTR   N/A     48  41  76 MISG      29.92F
MARTIN STATE   FAIR      43  41  93 SE5       29.94F
ANNAPOLIS      FAIR      46  42  86 S12       29.92F
FORT MEADE*    FAIR      45  39  81 CALM      29.93F

$$

MDZ012-015-019>023-230700-
MARYLAND EASTERN SHORE

CITY           SKY/WX    TMP DP  RH WIND       PRES   REMARKS
OCEAN CITY     FAIR      45  42  89 VRB6      30.01F
SALISBURY      MOCLDY    50  46  86 S6        29.98F
BAY BRIDGE AP* FAIR      46  41  81 SE12      29.92F
CAMBRIDGE*     MOCLDY    50  45  81 S14       29.95F
EASTON*        MOCLDY    52  44  76 S8        29.98F

$$

MDZ017>025-230700-
SOUTHERN MARYLAND

CITY           SKY/WX    TMP DP  RH WIND       PRES   REMARKS
PATUXENT RIVER NOT AVBL
ST INIGOES     FAIR      49  44  83 SE6       29.94F
LEONARDTOWN*   FAIR      48  43  81 SE5       29.94F

$$

MDZ003>005-230700-
NORTH CENTRAL MARYLAND

CITY           SKY/WX    TMP DP  RH WIND       PRES   REMARKS
FREDERICK*     CLOUDY    54  41  62 S6        29.89F
HAGERSTOWN APT CLOUDY    53  44  71 S14       29.82F
WESTMINSTER*   MOCLDY    52  45  76 SE7       29.87F

$$

MDZ501>502-230700-
WESTERN MARYLAND

CITY           SKY/WX    TMP DP  RH WIND       PRES   REMARKS
OAKLAND*       FAIR      45  37  76 S13G20    29.71F
CUMBERLAND*    FAIR      50  41  71 CALM      29.79F

$$

VAZ025>031-230700-
SHENANDOAH VALLEY

CITY           SKY/WX    TMP DP  RH WIND       PRES   REMARKS
WINCHESTER*    MOCLDY    52  41  66 S9        29.82F
FRONT ROYAL*   MOCLDY    55  43  62 MISG      29.81F
LURAY*         CLOUDY    54  43  66 W5        29.83F
NEW MARKET*    CLOUDY    55  44  65 SW8       29.82F
STAUNTON*      MOCLDY    53  44  72 S6        29.84F
WAYNESBORO*    CLOUDY    54  47  77 SE7       29.85F

$$

WVZ021-048>050-054>055-230700-
EASTERN WEST VIRGINIA PANHANDLE

CITY           SKY/WX    TMP DP  RH WIND       PRES   REMARKS
MARTINSBURG    CLOUDY    55  42  61 S12       29.80F
PETERSBURG*    FAIR      54  42  63 SW7       29.77F

$$

VAZ036>039-050-230700-
CENTRAL FOOTHILLS

CITY           SKY/WX    TMP DP  RH WIND       PRES   REMARKS
CHARLOTTESVILL CLOUDY    56  42  59 CALM      29.87F
CULPEPER*      CLOUDY    56  42  58 S3        29.88F
ORANGE*        CLOUDY    54  43  66 S6        29.89F
GORDONSVILLE*  CLOUDY    55  45  69 SW3       29.86F
WARRENTON*     CLOUDY    57  42  55 S3        29.87F

$$

VAZ055>057-230700-
NORTH AND CENTRAL PIEDMONT

CITY           SKY/WX    TMP DP  RH WIND       PRES   REMARKS
FREDERICKSBRG* CLOUDY    55  47  73 S7        29.89F
STAFFORD*      CLOUDY    57  47  69 S6        29.93F

$$

NCZ024-NYZ072-PAZ021-071-VAZ022-071-230700-
OTHER REGIONAL OBSERVATIONS

CITY           SKY/WX    TMP DP  RH WIND       PRES   REMARKS
NEW YORK CITY  CLOUDY    38  38 100 VRB6      30.04F FOG     WCI  33
PHILADELPHIA   FAIR      51  40  65 S9        29.96F
PITTSBURGH     FAIR      53  43  68 SE8       29.60F
ROANOKE        LGT RAIN  53  47  79 SE12      29.85F
RICHMOND       CLOUDY    57  52  83 S12       29.92F
RALEIGH        CLOUDY    61  59  93 S16G25    29.90F

$$

ANZ530>537-230700-
MARINE OBSERVATIONS

STATION/POSITION TIME  TEMP    WIND        PRES
                       AIR SEA DIR/SP/G
                 (UTC) (F)     (DEG/KT/KT) (MB)
THOMAS PT LIGHT  0600   42 34  170/ 13/ 13   N/A
BALT KEY BRIDGE  0542   46     150/  6/  8 1013.2F
COVE POINT       0542   37     180/ 13/ 14 1014.5F
LEWISETTA        0542   53 38  210/ 10/ 11 1014.2F
SOLOMONS ISLAND  0542   43 35   90/  8/  9 1013.7F
PINEY POINT      0542          130/  8/  9   N/A

$$





USA.gov is the U.S. government's official web portal to all federal, state and local government web resources and services.